This is the latest recevied weather packets stored in our database for station/object K2RMB. If no packets are shown the sender has not sent any weather packets the latest 10 day(s).
| Time | Temp. | Humidity | Pressure | Rain* | Wind** | Luminosity | Snow |
|---|---|---|---|---|---|---|---|
| 1777846236 | 10.56° C | 36% | 1009 hPa | 0 mm | - | 148 W/m² | - |
| 1777845932 | 10.56° C | 37% | 1009.3 hPa | 0 mm | - | 179 W/m² | - |
| 1777845629 | 10.56° C | 36% | 1009 hPa | 0 mm | - | 198 W/m² | - |
| 1777845326 | 10.56° C | 37% | 1009 hPa | 0 mm | - | 225 W/m² | - |
| 1777845023 | 10° C | 37% | 1009 hPa | 0 mm | - | 260 W/m² | - |
| 1777844722 | 10° C | 39% | 1009 hPa | 0 mm | - | 87 W/m² | - |
| 1777844418 | 10° C | 37% | 1009 hPa | 0 mm | - | 294 W/m² | - |
| 1777844116 | 10° C | 37% | 1009 hPa | 0 mm | - | 295 W/m² | - |
| 1777843813 | 10° C | 38% | 1009 hPa | 0 mm | - | 110 W/m² | - |
| 1777843510 | 10.56° C | 38% | 1009 hPa | 0 mm | - | 346 W/m² | - |
| 1777843208 | 9.44° C | 38% | 1009 hPa | 0 mm | - | 405 W/m² | - |
| 1777842904 | 9.44° C | 40% | 1009.3 hPa | 0 mm | - | 185 W/m² | - |
| 1777842600 | 10° C | 38% | 1009 hPa | 0 mm | - | 240 W/m² | - |
| 1777842298 | 9.44° C | 40% | 1009 hPa | 0 mm | - | 146 W/m² | - |
| 1777841997 | 9.44° C | 40% | 1009.3 hPa | 0 mm | - | 237 W/m² | - |
| 1777841694 | 9.44° C | 40% | 1009.3 hPa | 0 mm | - | 445 W/m² | - |
| 1777841391 | 9.44° C | 41% | 1009.3 hPa | 0 mm | - | 288 W/m² | - |
| 1777841088 | 9.44° C | 41% | 1009 hPa | 0 mm | - | 243 W/m² | - |
| 1777840785 | 10° C | 42% | 1009.3 hPa | 0 mm | - | 481 W/m² | - |
| 1777840483 | 9.44° C | 40% | 1009.8 hPa | 0 mm | - | 688 W/m² | - |
| 1777840179 | 9.44° C | 42% | 1009.3 hPa | 0 mm | - | 297 W/m² | - |
| 1777839877 | 8.89° C | 43% | 1009.3 hPa | 0 mm | - | 329 W/m² | - |
| 1777839576 | 9.44° C | 41% | 1009.3 hPa | 0 mm | - | 211 W/m² | - |
| 1777839272 | 9.44° C | 46% | 1009.8 hPa | 0 mm | - | 408 W/m² | - |
| 1777838970 | 8.89° C | 43% | 1009.3 hPa | 0 mm | - | 349 W/m² | - |
* Rain latest hour (hover to see other rain measurements)
** Current wind speed in m/s (hover to see current wind gust speed)